Regional Weather Roundup
Issued by NWS

Home | Current Version | Previous Version | Graphics & Text | Print | Product List | Glossary Off
Versions: 1 2 3 4 5 6 7 8 9 10 11 12 13 14 15 16 17 18 19 20 21 22 23 24 25 26 27 28 29 30 31 32 33 34 35 36 37 38 39 40 41 42 43 44 45 46 47 48 49 50

869
ASUS43 KTOP 210859
RWRKS

WEATHER ROUNDUP FOR KANSAS
NATIONAL WEATHER SERVICE GOODLAND KS
400 AM CDT SAT APR 21 2018

NOTE:  "FAIR" INDICATES FEW OR NO CLOUDS BELOW 12,000 FEET WITH NO
SIGNIFICANT WEATHER AND/OR OBSTRUCTIONS TO VISIBILITY.

KSZ001>006-013>018-027>032-041>047-211000-
NORTHWEST KANSAS

CITY           SKY/WX    TMP DP  RH WIND       PRES   REMARKS
GOODLAND       LGT RAIN  39  37  92 E17       30.13R WCI  30
HAYS           LGT RAIN  43  41  93 E16       30.15F
HILL CITY      CLOUDY    42  41  96 E15       30.18F
RUSSELL        LGT RAIN  44  44 100 E12       30.16F
$$

KSZ061>065-074>080-084>089-211000-
SOUTHWEST KANSAS

CITY           SKY/WX    TMP DP  RH WIND       PRES   REMARKS
DODGE CITY     CLOUDY    43  40  89 E14       30.04R
GREAT BEND     LGT RAIN  45  43  93 E10       30.14F
LIBERAL        CLOUDY    43  41  93 E16       30.03R
$$

KSZ066>073-081>083-090>101-211000-
SOUTHEAST KANSAS

CITY           SKY/WX    TMP DP  RH WIND       PRES   REMARKS
CHANUTE        LGT RAIN  52  33  48 E9        30.19S
COFFEYVILLE    LGT RAIN  52  36  54 E12       30.16F
HUTCHINSON     LGT RAIN  48  44  86 VRB3      30.16F
MEDICINE LODGE   N/A     46  45  96 E6        30.12S
NEWTON         LGT RAIN  46  41  82 E5        30.19S
PARSONS        CLOUDY    55  26  32 VRB5      30.19F
WICHITA INTL   LGT RAIN  48  44  86 SE7       30.17R
WICHITA JABRA  LGT RAIN  48  43  82 S3        30.18R
WICHITA MCCONL LGT RAIN  47  43  84 S3        30.18R
WINFIELD       RAIN      49  45  86 E3        30.17R
$$

KSZ007>012-019>026-033>040-048>060-102>105-211000-
NORTHEAST KANSAS

CITY           SKY/WX    TMP DP  RH WIND       PRES   REMARKS
CONCORDIA      LGT RAIN  47  38  71 SE12      30.23S
EMPORIA        CLOUDY    52  29  41 SE7       30.19R
LAWRENCE       CLOUDY    52  26  36 E6        30.25S
MANHATTAN      LGT RAIN  51  31  46 NE12      30.22R
OLATHE IND     CLOUDY    51  26  37 E10       30.24F
OLATHE EXE     CLOUDY    50  26  39 E7        30.24F
SALINA         LGT RAIN  48  44  86 E6        30.20F
TOPEKA BILLARD CLOUDY    52  27  38 E10       30.24F
TOPEKA FORBES  LGT RAIN  53  28  38 E10       30.23S
$$




USA.gov is the U.S. government's official web portal to all federal, state and local government web resources and services.